Weather History for Lawrence, KS

Change the Weather History Date:

Saturday, November 9, 2013

  Actual Average Record
Temperature  
Mean Temperature 53 °F 47 °F  
Max Temperature 70 °F 59 °F 78 °F (2012)
Min Temperature 35 °F 35 °F 23 °F (2000)
Degree Days  
Heating Degree Days 12 18  
Month to date heating degree days 136 149  
Since 1 July heating degree days 482 513  
Cooling Degree Days 0 0  
Month to date cooling degree days 0 0  
Year to date cooling degree days 1492 1370  
Growing Degree Days 2 (Base 50)    
Moisture  
Dew Point 34 °F    
Average Humidity 56    
Maximum Humidity 89    
Minimum Humidity 23    
Precipitation  
Precipitation 0.00 in 0.07 in 0.09 in (1998)
Month to date precipitation 0.08 0.78  
Year to date precipitation 27.75 35.68  
Sea Level Pressure  
Sea Level Pressure 30.15 in    
Wind  
Wind Speed 5 mph (NW)    
Max Wind Speed 16 mph    
Max Gust Speed 20 mph    
Visibility 10 miles    
Events      
T = Trace of Precipitation, MM = Missing Value Source: NWS Daily Summary

Daily Weather History Graph

Daily Weather History Graph

Search for Another Location

Airport:

Trip Planner

Search our weather history database for the weather conditions in past years. The results will help you decide how hot, cold, wet, or windy it might be!

Date:

Astronomy

Nov. 09, 2013 Rise Set
Actual Time 6:57 AM CST 5:11 PM CST
Civil Twilight 6:29 AM CST 5:39 PM CST
Nautical Twilight 5:57 AM CST 6:11 PM CST
Astronomical Twilight 5:25 AM CST 6:43 PM CST
Moon 12:35 PM CST (11/9) 11:42 PM CST (11/9)
Length of Visible Light 11h 10m
Length of Day
10h 14m
Waxing Crescent, 44% of the Moon is Illuminated
Nov 9
Waxing Crescent
Nov 9
First Quarter
Nov 17
Full
Nov 25
Last Quarter
Dec 2
New

Hourly Weather History & Observations

Time (CST) Temp. Windchill Dew Point Humidity Pressure Visibility Wind Dir Wind Speed Gust Speed Precip Events Conditions
12:52 AM 52.0 °F - 34.0 °F 50% 29.99 in 10.0 mi SW 6.9 mph - N/A   Clear
1:52 AM 50.0 °F - 35.1 °F 57% 30.00 in 10.0 mi WSW 6.9 mph - N/A   Clear
2:52 AM 46.9 °F - 34.0 °F 61% 30.01 in 10.0 mi WSW 3.5 mph - N/A   Clear
3:52 AM 39.9 °F - 33.1 °F 77% 30.03 in 10.0 mi Calm Calm - N/A   Clear
4:52 AM 37.0 °F - 32.0 °F 82% 30.05 in 10.0 mi Calm Calm - N/A   Clear
5:52 AM 36.0 °F - 32.0 °F 86% 30.08 in 10.0 mi Calm Calm - N/A   Clear
6:52 AM 35.1 °F 32.2 °F 30.9 °F 85% 30.11 in 10.0 mi East 3.5 mph - N/A   Clear
7:52 AM 42.1 °F - 37.0 °F 82% 30.14 in 10.0 mi Calm Calm - N/A   Clear
8:52 AM 50.0 °F - 39.0 °F 66% 30.15 in 10.0 mi Calm Calm - N/A   Clear
9:52 AM 55.0 °F - 39.0 °F 55% 30.16 in 10.0 mi WSW 4.6 mph - N/A   Clear
10:52 AM 59.0 °F - 37.9 °F 46% 30.16 in 10.0 mi Calm Calm - N/A   Clear
11:52 AM 66.0 °F - 35.1 °F 32% 30.15 in 10.0 mi NNW 6.9 mph - N/A   Clear
12:52 PM 69.1 °F - 33.1 °F 26% 30.14 in 10.0 mi North 11.5 mph - N/A   Clear
1:52 PM 70.0 °F - 30.9 °F 24% 30.14 in 10.0 mi North 13.8 mph - N/A   Clear
2:52 PM 69.1 °F - 30.9 °F 24% 30.14 in 10.0 mi North 9.2 mph - N/A   Clear
3:52 PM 66.9 °F - 33.1 °F 28% 30.16 in 10.0 mi NNW 6.9 mph - N/A   Clear
4:52 PM 61.0 °F - 34.0 °F 36% 30.18 in 10.0 mi North 5.8 mph - N/A   Clear
5:52 PM 50.0 °F - 35.1 °F 57% 30.21 in 8.0 mi North 5.8 mph - N/A   Clear
6:52 PM 46.9 °F - 35.1 °F 63% 30.24 in 8.0 mi NW 5.8 mph - N/A   Clear
7:52 PM 43.0 °F 40.3 °F 35.1 °F 74% 30.26 in 10.0 mi NW 4.6 mph - N/A   Clear
8:52 PM 42.1 °F 40.2 °F 34.0 °F 73% 30.27 in 10.0 mi NW 3.5 mph - N/A   Clear
9:52 PM 42.1 °F 40.2 °F 34.0 °F 73% 30.30 in 10.0 mi NW 3.5 mph - N/A   Clear
10:52 PM 43.0 °F 41.3 °F 33.1 °F 68% 30.31 in 10.0 mi WNW 3.5 mph - N/A   Clear
11:52 PM 42.1 °F 39.2 °F 33.1 °F 70% 30.32 in 10.0 mi NW 4.6 mph - N/A   Clear